Flag for Germany Weather past 2 weeks in Gifhorn, Lower Saxony, Germany

Now
63 °F

Mild.


Feels Like: 63 °F
Forecast: 64 / 79 °F
Wind: 3 mph from East

Location: Celle Airport

Current Time: Aug 2, 2014 at 6:48:38 AM

Latest Report: Aug 2, 2014 at 5:20 AM


Visibility: 5 mi

Pressure: 29.83 "Hg

Humidity: 88%

Dew point: 59 °F

Location of GifhornLocation

Historic Weather in Gifhorn — Graph

°F

Gifhorn temperature yesterday

Maximum temperature yesterday: 82 °F (at 5:20 PM)
Minimum temperature yesterday: 57 °F (at 5:20 AM)
Average temperature yesterday: 70 °F

Past Weeks' High & Low Weather Summary

 TemperatureHumidityPressure
High91 °F (Jul 19, 4:20 PM)100% (Jul 25, 8:20 PM)30.15 "Hg (Jul 25, 8:20 PM)
Low55 °F (Jul 31, 4:20 AM)26% (Jul 19, 4:20 PM)29.74 "Hg (Jul 29, 5:20 PM)
Average71 °F69%29.94 "Hg
* Reported Jul 18 5:20 AM — Aug 2 5:20 AM, Gifhorn, Weather by CustomWeather, © 2014

Note: Actual official high and low records may vary slightly from our data, if they occured in-between our weather recording intervals... More about our weather records

Advertising

Gifhorn weather history for previous 24 hours

 ConditionsComfort  
Time TempWeatherWind HumidityBarometerVisibility
5:20 AM
Aug 2
63 °FMild.3 mph88%29.83 "Hg5 mi
4:20 AM64 °FPassing clouds.3 mph78%29.83 "HgN/A
3:20 AM64 °FPassing clouds.3 mph78%29.83 "HgN/A
2:20 AM66 °FPassing clouds.3 mph73%29.86 "HgN/A
1:20 AM66 °FPassing clouds.3 mph73%29.86 "HgN/A
12:20 AM68 °FPassing clouds.5 mph69%29.86 "HgN/A
11:20 PM
Aug 1
70 °FPassing clouds.5 mph64%29.86 "HgN/A
10:20 PM73 °FPassing clouds.7 mph53%29.86 "HgN/A
9:20 PM75 °FPartly sunny.9 mph54%29.86 "HgN/A
8:20 PM79 °FPartly sunny.8 mph45%29.83 "HgN/A
7:20 PM81 °FPartly sunny.7 mph42%29.83 "HgN/A
6:20 PM81 °FPartly sunny.9 mph39%29.83 "HgN/A
5:20 PM82 °FPartly sunny.7 mph35%29.86 "HgN/A
4:20 PM81 °FPartly sunny.8 mph39%29.86 "HgN/A
3:20 PM81 °FPartly sunny.7 mph37%29.86 "HgN/A
2:20 PM81 °FPartly sunny.6 mph37%29.89 "HgN/A
1:20 PM79 °FScattered clouds.8 mph39%29.89 "HgN/A
12:20 PM79 °FScattered clouds.7 mph45%29.89 "HgN/A
11:20 AM75 °FScattered clouds.7 mph50%29.92 "HgN/A
10:20 AM72 °FScattered clouds.6 mph61%29.92 "HgN/A
9:20 AM68 °FScattered clouds.5 mph69%29.92 "HgN/A
8:20 AM63 °FScattered clouds.3 mph77%29.92 "HgN/A
7:20 AM59 °FScattered clouds.2 mph82%29.92 "HgN/A
6:20 AM57 °FPassing clouds.2 mph88%29.92 "HgN/A
Weather by CustomWeather, © 2014

See weather overviewHow to use our weather pages